TimeMST,TemperatureF,Dew PointF,Humidity,Sea Level PressureIn,VisibilityMPH,Wind Direction,Wind SpeedMPH,Gust SpeedMPH,PrecipitationIn,Events,Conditions,WindDirDegrees,DateUTC
12:53 AM,52.0,27.0,38,30.17,10.0,WSW,4.6,-,N/A,,Clear,240,2012-11-06 07:53:00
1:53 AM,48.9,27.0,43,30.18,10.0,Calm,Calm,-,N/A,,Clear,0,2012-11-06 08:53:00
2:53 AM,48.0,27.0,44,30.18,10.0,Calm,Calm,-,N/A,,Clear,0,2012-11-06 09:53:00
3:53 AM,46.9,28.0,48,30.18,10.0,Calm,Calm,-,N/A,,Clear,0,2012-11-06 10:53:00
4:53 AM,46.0,26.1,46,30.19,10.0,Calm,Calm,-,N/A,,Clear,0,2012-11-06 11:53:00
5:53 AM,48.0,27.0,44,30.21,10.0,WSW,3.5,-,N/A,,Clear,240,2012-11-06 12:53:00
6:53 AM,46.0,27.0,47,30.24,10.0,Calm,Calm,-,N/A,,Clear,0,2012-11-06 13:53:00
7:53 AM,51.1,28.0,41,30.25,10.0,Calm,Calm,-,N/A,,Clear,0,2012-11-06 14:53:00
8:53 AM,55.0,27.0,34,30.25,10.0,Calm,Calm,-,N/A,,Clear,0,2012-11-06 15:53:00
9:53 AM,57.9,28.0,32,30.25,10.0,Calm,Calm,-,N/A,,Clear,0,2012-11-06 16:53:00
10:53 AM,60.1,28.9,31,30.24,10.0,Calm,Calm,-,N/A,,Clear,0,2012-11-06 17:53:00
11:53 AM,62.1,28.0,28,30.21,-9999.0,North,-9999.0,-,N/A,,Clear,0,2012-11-06 18:53:00
12:53 PM,64.9,28.0,25,30.16,10.0,North,3.5,-,N/A,,Clear,360,2012-11-06 19:53:00
1:53 PM,66.9,28.0,23,30.14,10.0,NNE,4.6,-,N/A,,Clear,30,2012-11-06 20:53:00
2:53 PM,69.1,28.0,22,30.12,10.0,NE,3.5,-,N/A,,Clear,50,2012-11-06 21:53:00
3:53 PM,70.0,28.9,22,30.11,10.0,Calm,Calm,-,N/A,,Clear,0,2012-11-06 22:53:00
4:53 PM,66.9,28.9,24,30.11,10.0,NNW,3.5,-,N/A,,Clear,340,2012-11-06 23:53:00
5:53 PM,60.1,30.9,33,30.12,9.0,Calm,Calm,-,N/A,,Clear,0,2012-11-07 00:53:00
6:53 PM,57.9,30.9,36,30.13,10.0,SSW,4.6,-,N/A,,Clear,210,2012-11-07 01:53:00
7:53 PM,57.0,30.0,36,30.12,10.0,SSW,4.6,-,N/A,,Clear,210,2012-11-07 02:53:00
8:53 PM,54.0,30.9,41,30.12,10.0,Calm,Calm,-,N/A,,Clear,0,2012-11-07 03:53:00
9:53 PM,53.1,30.9,43,30.13,10.0,Calm,Calm,-,N/A,,Clear,0,2012-11-07 04:53:00
10:53 PM,52.0,30.0,43,30.12,10.0,Calm,Calm,-,N/A,,Clear,0,2012-11-07 05:53:00
11:53 PM,51.1,28.0,41,30.12,10.0,Calm,Calm,-,N/A,,Clear,0,2012-11-07 06:53:00